Theta_e
335 335 336 337 337 338 339 337 337 338 338 337 338 338 338 339 340 341 339 343 343 343 344 345 348 347 346 346 347 346 344 341 342 342 345 341 341 341 343 344 344 347 347 346 345 344 345 353 355 357 358 358 357 358 357 359 357 356 359 358 357 358 356
333 334 335 337 338 338 339 338 338 338 338 338 338 339 339 339 340 341 340 341 343 343 345 346 348 347 346 345 346 346 344 342 342 344 345 345 343 341 343 344 346 347 348 347 346 346 346 350 355 356 358 358 357 358 358 358 358 355 358 358 357 356 355
333 334 335 336 337 338 339 339 338 339 338 338 339 339 339 339 340 342 342 341 342 344 346 347 349 348 347 346 345 345 345 344 342 342 342 344 344 343 342 343 345 348 349 348 347 347 349 348 353 355 357 357 357 358 359 357 358 358 357 357 357 357 356
333 333 334 336 338 339 340 340 339 339 340 339 339 340 340 341 342 343 344 343 342 344 344 347 349 349 348 347 346 346 346 345 343 343 342 344 345 345 344 342 343 346 349 348 349 349 351 350 350 353 361 356 357 357 359 357 358 358 358 358 356 356 356
333 334 334 335 337 338 338 339 339 339 340 340 340 341 341 342 343 343 345 345 344 344 346 347 350 351 351 350 348 347 347 346 344 344 344 343 345 347 345 343 342 342 348 350 349 350 350 351 350 351 356 356 356 356 358 358 358 358 358 358 356 357 356
332 333 334 335 337 338 339 339 340 340 340 340 340 341 342 343 344 344 345 347 346 346 347 348 349 351 350 350 350 349 349 348 346 346 345 344 343 345 346 345 344 343 343 348 351 349 350 351 351 351 352 356 356 356 357 358 358 358 358 358 356 357 356
332 333 334 335 336 338 339 339 340 341 341 342 342 343 344 344 344 345 346 347 347 346 346 347 349 350 351 351 350 350 348 348 348 346 346 345 344 344 346 347 347 345 344 347 350 351 348 349 349 352 353 354 356 355 356 357 358 359 358 358 356 356 357
333 333 334 335 336 337 339 339 341 342 342 342 343 343 343 344 345 346 346 348 348 348 347 347 348 350 351 352 351 350 349 349 349 348 347 346 345 344 344 347 349 348 347 346 348 352 350 348 348 349 353 354 354 355 356 356 357 359 358 358 357 356 358
333 334 334 335 336 337 338 339 341 342 342 342 343 343 344 345 345 346 347 348 349 349 348 349 349 350 351 352 351 350 350 350 349 348 347 346 345 345 345 345 348 351 349 348 348 352 352 351 349 348 349 353 354 354 355 356 357 358 359 358 357 356 357
331 332 334 335 337 338 339 339 341 341 342 342 343 343 344 345 346 347 348 350 350 349 350 350 351 351 351 351 351 351 350 349 349 348 347 346 346 345 345 345 346 351 351 350 350 350 353 353 351 350 348 350 353 354 354 355 356 358 359 358 358 357 356
332 332 333 334 335 337 339 339 340 340 341 342 343 344 345 345 346 347 348 350 351 351 352 352 353 352 351 351 351 351 350 349 350 349 348 347 346 346 346 346 346 348 352 352 351 351 351 353 353 351 349 349 352 353 354 355 356 356 358 358 359 358 357
331 332 333 334 335 336 338 339 340 341 341 342 343 344 345 346 346 347 349 350 353 353 353 353 354 354 353 352 352 351 350 350 350 349 349 348 347 347 347 347 347 347 351 353 352 352 351 351 353 353 350 350 351 353 354 355 356 356 356 358 358 358 357
332 334 334 333 334 336 338 339 339 340 341 342 343 344 345 346 346 347 348 350 352 354 355 355 355 355 354 354 353 352 352 351 350 350 350 350 349 349 348 348 349 349 349 353 353 352 351 350 351 353 352 351 351 352 354 354 355 356 356 356 357 357 356
343 338 339 339 336 335 337 338 339 340 340 341 342 344 345 346 347 347 348 349 352 354 355 356 356 355 355 355 354 353 353 353 352 351 351 351 351 350 350 350 350 350 351 353 352 352 352 351 350 351 353 353 352 352 353 354 354 355 355 355 355 356 356
335 336 337 339 339 339 338 338 339 339 340 341 342 342 343 345 346 347 348 349 352 354 355 357 356 356 355 355 354 354 355 355 354 354 352 352 351 350 350 350 351 352 352 353 353 354 353 353 351 350 351 353 353 353 354 353 354 354 355 354 354 355 355
331 333 335 336 336 337 338 340 341 341 341 342 343 343 343 344 345 346 347 348 350 353 356 357 356 356 356 355 355 356 356 356 355 354 353 352 351 350 350 350 351 352 352 353 353 353 353 353 352 350 350 351 353 353 354 354 354 352 344 347 354 354 355
324 326 328 331 334 336 337 339 340 342 343 344 343 343 343 345 346 347 348 348 349 351 356 357 356 356 356 356 356 356 356 356 355 355 353 352 351 351 350 350 351 351 352 353 354 354 353 353 351 351 350 350 352 353 354 354 354 343 336 337 342 352 353
320 322 324 327 330 332 334 337 338 339 341 342 343 346 345 344 346 347 348 349 349 350 355 358 357 357 357 357 357 357 356 356 355 354 354 353 351 351 350 350 350 351 351 353 353 354 354 352 351 351 350 350 351 353 354 354 347 335 333 335 335 343 354
322 323 323 325 327 330 332 335 335 338 340 340 341 343 345 347 348 347 348 349 350 351 352 356 358 357 357 358 358 358 357 356 355 354 354 353 352 351 351 350 350 350 351 352 353 354 353 352 351 350 351 350 349 351 353 354 344 334 331 332 333 334 346
320 322 323 324 325 327 329 332 334 336 337 339 343 343 346 346 345 349 349 348 349 350 350 350 354 358 358 358 358 358 358 357 355 354 354 353 353 352 351 350 350 350 351 353 354 353 352 352 351 350 350 350 350 350 352 353 344 332 328 329 330 332 338
318 320 321 323 324 326 329 330 331 334 336 337 342 345 343 345 346 345 347 348 348 351 351 351 351 355 358 358 359 359 358 357 356 355 354 353 353 352 351 350 350 351 351 352 353 353 352 352 350 350 350 351 351 350 351 352 339 328 326 325 326 329 335
317 319 319 321 322 325 326 327 331 333 336 341 342 344 347 347 348 347 345 346 348 348 349 349 350 353 357 358 359 358 358 357 356 355 354 353 353 352 351 351 350 350 352 352 353 354 354 353 352 350 350 350 351 351 350 352 333 327 325 324 324 328 341
318 318 319 321 322 323 326 327 329 332 338 339 340 342 343 347 350 347 346 345 345 348 349 349 349 351 356 358 359 359 359 358 357 355 354 354 352 352 351 351 351 351 353 352 352 353 353 353 352 352 350 350 351 351 351 352 338 325 322 322 323 327 344
319 319 320 320 322 323 325 327 329 332 336 336 337 340 341 343 345 346 344 345 347 347 347 349 350 352 354 357 359 360 359 359 358 356 355 354 352 352 352 353 353 352 353 352 352 352 353 354 353 353 352 351 351 351 351 352 342 322 321 321 321 331 345
317 319 319 320 320 322 324 326 328 331 333 336 336 338 340 342 343 345 347 347 348 351 351 350 350 351 352 356 359 360 360 360 358 357 356 354 354 353 353 353 353 353 353 353 353 353 354 355 354 353 352 352 352 353 351 352 344 321 321 320 319 330 347
315 316 318 319 321 324 325 328 327 328 330 334 336 338 340 341 343 346 349 351 352 352 351 352 354 355 356 356 358 360 360 360 359 358 357 355 355 355 354 355 354 353 353 353 353 353 353 354 354 353 353 352 352 353 353 353 354 338 319 319 318 322 347
317 317 317 319 321 326 324 326 327 328 330 333 335 337 339 341 343 345 347 350 351 352 354 355 355 355 356 357 358 360 360 360 360 358 358 357 356 356 356 355 354 354 353 352 353 353 352 353 354 353 353 353 352 352 353 354 354 346 319 317 317 318 330
317 317 318 321 323 324 324 325 327 329 330 332 333 336 337 339 340 343 347 350 352 355 359 359 356 355 355 356 358 359 360 360 360 360 359 359 358 356 355 356 356 355 354 353 353 352 351 352 352 353 353 353 352 352 351 353 348 354 323 318 316 317 319
316 315 316 318 319 322 324 323 326 327 328 330 332 334 336 339 341 344 346 348 353 357 357 357 358 358 355 354 357 359 359 360 360 359 360 359 358 356 355 355 355 355 355 353 352 352 351 351 351 352 352 352 352 352 352 352 351 339 340 318 315 314 315
316 317 316 319 320 321 324 322 325 326 327 328 330 333 335 336 335 338 340 342 347 347 348 349 352 356 356 354 355 358 359 360 361 360 360 360 359 357 355 355 355 355 355 354 352 351 351 351 350 351 351 351 351 352 352 353 353 338 332 331 314 314 313
314 316 317 318 319 322 323 322 323 325 325 326 327 328 330 330 330 333 335 339 342 342 343 345 349 354 356 354 354 356 359 360 360 360 360 360 359 357 356 355 355 354 355 354 353 352 351 351 350 349 350 351 351 351 352 353 353 353 336 326 318 314 313
314 316 318 320 319 321 322 322 323 322 322 324 325 325 327 327 328 329 332 336 338 340 341 344 348 352 354 355 354 356 358 359 360 360 361 361 360 359 358 356 356 355 355 354 353 353 351 350 350 349 349 350 351 351 353 353 353 353 351 333 324 317 313
313 314 317 318 320 321 320 322 321 320 321 321 322 323 324 324 326 328 331 333 336 338 340 343 347 350 353 354 353 355 357 358 359 360 361 361 361 361 360 358 357 356 354 355 354 353 352 351 349 349 349 349 350 352 353 353 353 353 353 348 339 333 325
312 314 317 320 320 321 320 321 318 318 319 320 320 322 323 323 324 326 329 332 334 336 338 342 346 347 351 354 354 354 357 358 357 358 360 361 361 360 360 359 359 357 355 355 355 353 352 351 350 349 349 349 350 351 352 352 353 353 353 351 346 341 335
312 314 317 319 319 320 319 321 318 318 319 319 320 321 321 322 323 325 327 329 332 334 335 341 344 347 350 355 354 354 355 357 358 359 360 360 361 361 362 360 359 358 359 360 359 358 355 354 353 352 352 351 351 350 350 351 351 353 337 352 334 342 343
312 314 317 319 318 318 319 322 319 318 319 318 320 321 321 321 322 324 326 327 330 332 334 340 343 346 349 353 354 354 355 356 358 359 359 360 360 360 353 337 324 348 361 360 347 339 335 334 352 355 354 352 352 353 351 351 354 338 327 325 320 319 323
314 314 315 318 316 316 318 320 320 318 318 318 320 320 320 320 321 322 324 325 328 330 334 339 341 345 348 346 348 350 355 356 357 358 359 360 360 359 355 347 328 302 302 321 337 331 321 319 323 328 334 350 352 346 331 330 331 326 320 317 314 314 314
315 315 316 317 316 317 319 320 318 317 318 319 320 319 320 320 321 321 322 324 326 329 333 338 337 340 344 342 341 341 343 350 356 357 358 359 360 359 355 349 343 334 310 299 310 322 318 315 312 312 317 324 334 346 350 329 319 314 310 314 313 312 311
Wind_Speed
16 16 16 16 17 18 18 18 19 19 19 18 18 20 21 19 18 18 17 19 20 19 19 18 18 17 18 16 15 13 13 11 9 10 9 10 9 9 9 8 10 10 9 9 9 10 9 8 9 9 8 7 7 7 7 6 6 5 5 6 6 6 6
16 17 17 16 17 19 19 19 19 19 19 19 18 21 20 20 18 18 18 19 20 20 19 18 17 16 18 17 15 14 14 13 11 10 9 8 8 8 9 9 9 10 10 10 9 8 7 8 9 9 9 8 8 7 7 6 6 5 5 5 7 6 5
16 17 17 17 18 18 20 18 18 19 20 19 19 19 20 21 20 21 19 19 20 19 18 19 18 18 16 16 15 15 15 13 12 11 11 11 12 12 10 9 8 9 10 9 8 8 7 8 8 9 9 9 9 8 7 7 6 6 6 5 6 7 6
18 18 19 19 18 17 19 18 20 19 19 21 21 22 22 22 21 20 19 20 20 19 19 18 18 18 16 16 16 15 15 15 14 13 13 12 12 12 10 8 7 6 7 9 9 9 8 8 9 8 9 9 9 8 7 8 7 6 6 6 6 6 6
21 20 17 16 17 17 17 17 17 18 20 21 22 21 21 21 20 17 17 19 20 21 20 20 16 16 14 15 13 13 15 16 14 13 12 11 11 10 11 12 10 9 9 9 8 8 8 8 8 8 9 8 9 8 8 7 8 7 6 6 6 6 6
20 19 20 20 19 18 17 18 19 19 19 20 21 20 19 19 18 20 19 19 19 19 19 18 18 17 17 16 14 14 14 14 13 13 13 12 11 11 12 12 12 11 10 10 8 9 9 9 10 10 10 9 9 9 9 9 8 8 7 6 7 6 6
20 21 19 18 18 18 18 19 20 19 18 18 18 17 17 18 20 20 18 19 20 20 20 20 20 18 17 15 16 15 16 15 14 14 13 12 12 12 13 12 12 12 12 10 10 9 9 9 9 10 10 10 9 10 10 9 9 8 7 7 7 6 6
21 20 20 19 18 17 17 17 17 17 16 15 15 16 18 18 17 18 19 18 19 19 19 20 19 17 17 16 16 17 17 16 15 14 13 13 13 13 12 11 11 11 10 11 11 10 11 11 10 8 9 9 10 10 10 10 10 9 8 8 8 7 6
20 21 21 20 18 17 16 16 17 17 17 16 17 18 18 17 17 18 19 18 18 19 20 19 19 17 15 15 16 17 16 16 15 14 15 15 13 14 13 12 12 11 11 11 11 10 11 11 11 10 9 9 9 10 10 10 10 9 9 9 9 9 8
17 17 17 17 17 16 16 15 15 14 15 15 15 16 18 17 17 17 17 18 18 20 20 19 17 16 16 16 16 17 16 16 15 16 15 15 14 14 14 12 11 10 11 12 11 11 11 11 11 11 10 10 10 10 10 10 9 9 9 10 10 9 9
16 18 17 17 17 17 16 15 16 16 16 16 15 15 16 16 17 17 18 17 18 18 18 18 16 16 17 16 17 17 16 17 16 16 17 16 14 15 15 14 12 11 12 12 12 11 11 10 10 11 11 11 11 10 11 11 11 10 10 9 9 10 9
14 15 15 17 18 16 17 17 17 16 16 15 15 16 15 16 16 17 17 18 17 16 17 17 16 17 16 16 17 16 17 17 16 17 18 17 16 16 15 14 13 12 12 12 13 12 11 12 11 11 12 11 11 11 11 11 11 11 11 11 10 9 9
4 2 5 11 14 14 12 12 16 17 17 17 17 16 15 16 16 16 16 16 16 16 16 16 16 16 16 16 17 16 17 17 17 16 16 16 16 14 14 14 14 14 13 12 13 13 12 12 12 11 11 12 12 12 12 11 11 10 10 10 9 10 9
17 18 19 17 12 5 2 10 13 15 17 18 17 17 16 16 16 16 15 16 15 15 15 14 16 16 16 16 16 16 16 16 15 15 15 14 14 14 14 14 14 14 13 12 13 14 13 13 13 12 11 12 12 12 12 11 11 10 10 9 10 9 9
19 18 18 17 15 14 12 8 5 2 1 4 9 14 16 15 15 13 12 12 13 14 15 15 15 15 16 15 16 16 15 14 13 13 13 14 13 14 14 14 14 13 13 13 13 12 13 13 13 12 12 11 12 12 11 11 11 10 10 10 10 9 10
19 19 17 15 14 14 15 15 12 6 5 4 4 3 5 6 9 12 13 13 13 13 13 13 15 15 15 15 15 13 13 13 13 12 13 13 14 14 14 13 13 13 13 14 14 13 13 12 12 13 13 12 12 11 11 10 9 12 17 15 11 11 10
18 17 16 15 15 15 14 14 14 14 13 10 5 3 7 8 8 8 9 9 9 9 10 12 12 14 14 15 13 13 13 13 13 12 13 13 13 13 14 14 13 13 13 13 13 14 13 12 13 13 12 13 12 12 11 10 10 17 17 18 18 13 10
17 15 15 15 14 15 15 14 14 12 12 11 11 10 3 3 6 9 12 12 12 11 11 13 14 15 15 15 13 14 14 13 13 13 14 13 14 14 13 13 13 13 13 13 13 13 12 13 13 12 12 12 12 13 12 11 14 17 17 18 18 16 12
14 13 13 14 15 15 14 13 12 10 10 9 9 8 8 10 4 6 8 9 10 11 13 16 18 17 17 16 16 15 15 14 14 14 14 14 14 13 13 13 14 14 13 14 13 11 13 14 13 12 12 12 13 13 13 12 16 17 17 18 18 19 15
11 12 13 13 14 14 13 12 12 11 9 9 9 8 7 5 8 10 3 7 7 9 9 9 10 14 15 16 16 16 15 15 15 15 15 14 13 13 13 14 15 14 13 12 12 13 13 13 14 13 12 13 13 13 12 13 15 17 18 18 19 19 16
10 12 13 14 15 14 14 14 14 15 13 11 11 10 9 7 7 9 11 6 9 11 12 9 8 9 13 15 15 15 15 15 15 15 15 14 14 13 14 14 14 14 13 12 13 13 13 14 14 13 13 13 13 12 13 12 17 17 18 19 19 19 15
11 11 11 10 10 11 12 13 11 13 15 10 9 10 8 7 6 6 9 17 11 5 6 8 10 9 9 12 14 15 15 15 15 15 14 14 14 15 15 14 14 15 13 12 12 12 11 12 12 13 13 12 13 12 13 13 18 18 19 19 19 19 12
11 11 10 10 10 9 9 9 11 11 10 11 9 8 11 11 8 5 7 11 15 8 5 4 7 9 10 13 14 15 15 15 15 15 15 14 15 16 15 15 14 13 12 13 13 12 13 13 13 12 13 13 13 14 13 13 15 18 19 19 20 14 10
8 8 10 11 10 8 7 7 10 10 9 12 11 9 10 10 9 7 4 9 14 10 7 8 10 10 9 10 13 14 14 15 15 15 15 15 16 16 15 14 12 14 12 13 13 13 13 12 12 12 12 13 14 14 13 13 14 19 19 20 19 16 12
9 10 9 10 10 13 12 8 8 9 10 9 11 12 12 13 13 9 7 8 12 10 7 7 9 10 11 10 10 12 14 15 15 15 15 16 16 15 15 15 14 12 12 13 12 13 11 11 11 12 12 13 14 16 16 13 13 17 19 21 20 17 11
11 11 9 9 8 9 9 11 9 9 9 9 10 11 12 12 11 9 8 9 9 8 7 7 7 7 9 11 12 12 13 14 15 16 16 17 15 14 14 13 12 13 14 13 12 11 11 11 11 13 12 12 13 13 14 14 12 13 20 20 20 21 14
8 9 10 11 10 10 9 9 10 10 9 8 9 10 10 10 11 11 10 9 9 9 8 8 7 7 7 7 10 12 14 14 15 17 16 16 15 15 13 13 14 13 13 13 12 12 11 12 12 12 12 12 12 12 13 13 13 12 20 21 22 22 19
10 9 7 7 9 10 9 9 9 10 10 10 10 9 8 9 10 11 10 10 9 9 10 9 8 7 8 7 9 11 13 14 14 15 15 15 13 12 13 12 12 12 13 12 12 14 13 12 11 11 12 11 12 13 13 14 18 11 17 22 22 22 24
9 10 11 11 11 11 10 8 9 10 11 11 11 10 10 10 10 11 11 12 12 12 13 13 12 10 9 9 9 10 13 14 15 13 12 12 13 14 14 12 12 13 12 12 12 13 13 13 11 11 11 11 11 11 12 11 12 18 14 19 22 23 23
10 10 10 9 9 10 11 9 8 9 9 9 10 11 11 12 12 12 12 12 12 13 13 13 13 12 11 10 10 11 12 13 15 15 13 14 14 14 13 13 12 12 11 12 12 11 12 11 11 11 12 13 11 10 10 10 10 13 18 16 22 21 23
10 12 11 11 11 11 10 11 11 10 10 9 11 11 11 11 12 13 13 12 12 12 13 13 13 13 12 11 10 11 11 12 12 14 14 13 14 13 13 13 12 11 11 11 11 12 12 12 11 12 12 11 12 11 10 10 11 10 14 19 19 22 23
9 9 11 11 11 12 11 10 9 10 11 11 12 12 10 11 12 14 13 14 13 12 12 12 12 13 13 11 10 10 11 12 13 13 14 14 13 14 13 14 13 12 11 11 12 12 13 12 12 12 11 11 11 11 10 10 10 11 10 10 13 15 20
8 8 8 9 11 11 10 10 10 11 12 13 12 11 12 13 12 12 13 14 14 13 13 13 12 12 13 11 11 10 10 12 11 11 12 13 12 12 12 12 12 12 12 12 13 13 13 13 12 12 12 13 11 10 10 10 10 10 10 7 8 9 10
8 8 7 6 7 9 8 8 10 10 11 11 11 11 11 12 12 13 13 13 14 14 14 13 11 11 13 14 10 9 10 11 15 15 11 12 13 12 11 11 12 12 13 14 13 13 12 12 12 13 13 12 11 10 10 10 10 11 11 9 9 9 9
6 7 7 7 7 8 8 6 8 8 9 10 9 10 11 12 12 13 15 15 14 14 13 12 13 11 12 12 9 9 9 10 11 11 12 12 12 12 13 14 14 14 13 14 13 14 14 13 12 12 12 11 11 12 12 11 12 13 15 15 15 13 10
4 5 7 6 6 7 8 8 8 8 9 9 10 10 11 12 12 13 14 14 13 13 13 12 12 11 10 11 8 7 8 9 9 11 11 12 12 11 7 1 1 8 13 12 15 17 18 14 13 12 11 11 12 12 13 14 15 9 10 12 14 17 19
4 4 5 6 8 9 10 8 9 8 10 10 11 11 11 11 12 13 14 14 14 13 12 11 10 9 8 8 9 6 4 7 9 10 10 11 11 11 11 9 2 10 7 2 8 15 17 17 18 17 16 13 11 10 15 14 4 10 16 16 16 18 19
5 4 4 4 6 7 9 9 9 9 10 9 9 10 12 10 10 13 14 14 14 13 13 11 10 12 8 5 5 8 5 1 5 8 11 10 12 13 12 12 9 1 8 9 3 1 8 11 11 12 14 17 16 11 9 11 12 12 14 18 18 18 19
Wind_Direction
188 190 191 191 189 187 185 184 182 183 182 179 178 180 181 180 181 180 182 182 186 184 186 184 186 186 189 191 194 197 201 195 189 194 195 194 193 188 182 182 184 191 189 193 199 197 201 195 194 196 192 192 191 201 207 208 213 194 191 193 192 190 202
193 193 192 190 193 191 188 184 181 182 182 181 179 180 182 183 181 183 184 184 186 185 184 187 186 189 191 193 192 195 198 202 196 195 195 196 196 195 191 183 183 189 191 197 196 199 188 197 192 191 193 193 194 196 204 206 209 190 186 183 187 195 196
193 194 191 193 194 193 190 184 183 183 183 182 180 180 184 185 184 184 183 185 186 185 184 186 188 190 193 193 193 197 199 200 201 197 196 197 198 198 197 190 187 185 194 193 194 193 192 192 195 193 190 192 195 194 198 203 207 192 187 174 178 187 194
193 193 196 195 195 195 193 189 185 184 184 183 182 182 185 186 185 184 183 184 185 184 186 189 188 191 191 192 195 198 200 202 202 201 202 201 199 199 196 198 194 188 182 192 195 192 192 191 193 196 194 192 196 195 193 198 200 190 185 179 182 185 190
193 194 191 192 195 191 193 194 189 187 187 186 186 184 185 185 183 183 184 185 185 186 188 187 189 191 192 192 195 198 200 201 203 205 206 204 202 198 200 201 200 197 195 192 192 192 190 191 196 195 198 195 197 194 196 195 198 192 186 184 187 192 198
194 192 191 195 191 188 190 192 192 190 187 187 188 186 184 181 181 183 185 184 188 188 186 187 189 189 192 194 195 198 200 204 205 206 206 205 199 201 204 204 201 203 201 199 192 195 193 193 196 197 198 198 197 197 197 196 199 194 192 189 195 193 199
192 190 194 196 192 190 187 190 192 191 189 189 189 187 182 181 183 185 183 186 186 187 188 190 192 190 193 191 196 196 198 201 202 207 209 209 205 205 206 205 204 203 204 198 200 196 197 198 198 199 202 199 199 199 197 198 198 198 192 193 199 201 202
187 188 193 190 192 195 191 186 189 191 190 187 185 185 185 184 184 183 186 187 187 188 190 191 193 193 192 193 195 197 198 200 201 204 206 209 209 209 207 206 205 204 203 201 204 198 202 204 204 201 201 203 203 201 201 200 200 198 193 196 200 204 201
187 188 188 188 188 192 192 188 186 187 188 186 186 187 187 184 186 187 187 185 187 189 192 192 192 193 192 194 196 199 199 198 200 202 205 208 210 212 210 208 206 202 202 205 205 203 204 205 207 206 201 205 205 203 202 200 201 197 195 200 201 202 204
186 190 191 187 185 187 187 186 183 183 187 188 187 187 189 189 188 186 186 188 188 191 191 190 191 192 193 195 199 198 198 199 201 201 204 208 211 213 213 211 209 204 205 207 206 204 206 206 207 207 204 206 206 204 203 201 200 198 199 202 202 204 206
185 185 185 183 186 186 184 182 183 186 187 188 188 190 192 190 188 187 189 188 189 191 189 190 189 191 194 195 198 199 200 201 199 202 204 208 210 213 212 212 211 207 207 207 210 208 204 208 206 206 204 206 205 204 205 203 199 198 201 203 204 206 207
181 182 182 185 185 182 183 187 188 186 185 186 188 191 192 192 191 191 190 190 188 186 187 189 189 191 192 195 198 200 202 203 202 203 204 206 209 211 211 211 211 209 209 208 209 209 207 205 205 204 204 205 205 204 206 205 201 201 201 202 203 205 208
140 162 205 190 185 186 186 186 188 189 186 186 188 191 191 192 193 194 193 190 186 186 186 186 188 190 192 194 198 200 203 204 204 204 204 206 208 209 210 211 210 210 210 207 209 208 209 208 206 206 204 205 205 205 204 204 203 204 205 203 202 204 207
58 55 49 39 26 9 223 205 200 193 189 188 190 191 190 192 194 194 192 190 186 183 183 185 188 190 193 194 197 200 202 205 205 205 206 206 207 209 210 210 210 210 210 207 209 210 209 208 207 207 205 205 206 206 204 203 204 205 206 204 202 202 209
48 51 49 44 42 41 33 38 44 26 304 237 210 197 193 193 196 195 194 190 186 182 185 182 185 189 193 195 199 201 200 201 204 207 207 207 207 209 211 211 211 210 209 208 210 211 211 209 207 207 207 208 208 208 206 205 206 204 203 203 204 203 207
42 39 36 37 35 42 42 36 24 31 85 97 149 202 221 214 204 198 194 192 187 185 182 179 185 189 192 198 200 199 198 199 200 203 205 206 208 209 210 212 211 210 210 210 210 211 210 210 208 207 206 206 208 208 208 209 208 207 202 200 201 202 205
30 31 25 25 28 27 30 33 34 32 30 21 16 109 153 167 178 192 202 197 193 186 179 180 184 189 194 198 197 196 196 198 201 201 204 206 208 208 209 211 211 212 212 211 210 211 209 209 209 208 207 205 205 207 209 211 212 208 201 202 202 200 203
15 20 21 20 21 22 19 23 31 31 27 17 14 355 351 162 175 186 194 187 190 189 176 182 187 192 195 196 193 194 195 197 199 202 205 205 207 207 208 209 211 213 212 211 211 210 209 210 210 209 208 206 205 206 208 212 214 208 203 202 203 202 202
1 7 15 14 16 15 17 14 9 21 27 11 353 7 20 345 320 192 185 195 196 183 182 184 187 189 192 193 193 193 193 193 196 200 203 205 206 206 206 207 211 213 212 212 211 207 209 211 209 210 208 206 205 208 208 213 213 208 203 203 204 206 206
3 4 6 11 11 12 8 7 358 351 9 5 349 346 357 38 359 314 242 180 183 187 189 181 188 191 193 192 193 192 190 192 194 198 201 201 204 204 206 207 210 212 213 213 209 209 210 210 211 210 208 207 206 207 209 212 214 204 201 202 203 206 205
5 9 11 3 7 7 2 1 352 344 346 357 352 346 338 360 32 349 305 253 203 202 199 199 198 198 194 195 195 191 190 192 194 196 197 198 199 203 207 208 210 210 211 211 210 209 208 208 210 210 209 209 207 207 210 215 211 200 200 201 202 205 201
4 6 12 6 360 358 5 354 348 337 327 332 351 343 331 330 18 23 310 297 287 236 208 193 198 206 203 202 196 194 192 191 193 194 195 197 198 202 206 208 208 209 209 211 213 212 211 212 211 209 210 209 208 207 212 216 207 198 198 199 202 199 199
3 360 359 0 2 4 355 343 342 333 323 328 351 356 336 332 347 19 331 289 267 254 235 221 229 221 207 202 198 197 194 193 193 193 195 196 199 203 205 205 207 209 207 212 214 211 210 210 209 209 207 208 208 210 213 217 206 198 197 198 199 187 201
359 355 356 352 348 355 2 351 340 340 337 333 343 349 324 317 324 328 320 291 279 261 235 222 227 225 222 215 202 197 195 195 194 194 194 196 201 203 204 204 205 207 204 210 212 215 213 208 211 210 208 207 209 209 212 217 205 196 198 198 193 185 196
358 350 355 358 354 348 345 356 347 345 338 338 337 335 325 324 323 310 289 272 269 270 264 246 236 231 231 224 212 201 197 197 196 195 195 199 203 201 201 201 203 202 203 210 213 218 213 209 211 211 210 209 209 208 210 216 208 194 198 199 192 190 202
351 349 350 354 358 352 338 339 349 353 349 343 331 326 323 322 311 295 278 275 278 285 277 269 267 253 241 224 209 205 201 199 197 197 197 200 202 200 202 199 198 201 203 207 210 213 213 212 211 212 212 208 208 209 210 213 212 194 199 198 194 192 198
344 340 345 351 354 354 353 352 348 342 340 336 327 326 323 313 304 301 299 295 297 298 295 289 278 266 254 227 211 205 203 200 199 198 200 200 199 198 198 196 199 199 201 205 207 210 214 214 212 214 215 210 209 210 208 210 211 197 194 199 195 196 196
336 337 345 346 348 356 360 356 345 341 344 341 334 331 315 304 301 303 304 302 302 305 308 311 297 274 262 237 214 206 203 203 203 200 199 200 195 195 199 200 197 197 200 202 203 208 213 213 212 213 215 214 210 211 209 207 207 201 195 197 197 196 197
338 339 341 346 352 357 357 356 351 352 346 341 337 332 320 314 314 323 324 322 324 330 330 324 315 297 271 250 224 211 203 201 200 199 200 197 195 194 197 193 195 198 197 200 203 207 210 212 212 212 215 215 213 211 209 204 203 200 195 199 199 198 199
336 340 344 343 348 347 351 353 349 348 348 342 344 343 343 342 337 331 327 326 333 329 324 320 315 306 284 258 234 216 209 202 199 198 198 195 191 192 193 193 196 196 195 197 200 203 209 212 210 213 215 215 215 213 210 206 200 200 197 195 198 199 200
334 336 340 341 346 345 350 350 344 348 349 348 352 352 348 344 337 329 327 329 328 325 321 317 314 309 292 266 239 218 212 202 198 196 195 193 188 189 192 193 190 195 196 194 200 204 209 210 209 213 215 215 215 214 210 206 206 205 203 197 191 198 201
327 334 337 339 346 349 345 342 347 353 352 350 356 351 348 343 339 333 328 327 327 323 319 315 312 310 298 273 245 223 207 202 199 195 193 190 190 191 190 188 189 193 190 194 200 205 207 209 209 212 214 217 216 215 211 207 208 213 204 197 192 196 203
316 322 330 339 340 343 344 345 348 351 355 355 351 349 348 344 338 330 326 328 328 325 321 315 311 312 308 280 250 224 207 199 196 194 193 191 190 191 188 189 190 191 193 196 201 204 208 208 207 211 213 218 217 214 212 209 213 213 211 180 185 193 195
309 313 322 331 334 340 337 344 348 343 349 354 348 345 345 344 340 333 328 328 332 330 322 316 315 314 311 298 259 227 206 203 195 189 188 190 188 186 188 189 190 193 197 200 201 202 207 207 207 210 212 218 216 212 213 217 216 213 210 197 190 193 181
291 295 305 333 344 342 333 334 341 340 346 351 346 345 345 344 340 338 337 335 331 330 322 314 316 314 308 302 269 232 210 203 194 189 188 189 190 192 188 185 190 198 205 206 199 200 200 203 207 208 214 215 213 210 216 219 219 219 207 204 193 185 182
282 300 313 319 336 335 330 338 343 339 346 349 346 347 349 350 341 338 340 333 328 328 322 316 317 314 311 310 280 238 212 205 197 191 189 187 186 183 180 348 329 211 204 202 203 202 202 194 205 205 207 213 216 212 215 218 224 227 197 199 185 189 188
277 293 314 324 340 340 340 336 343 335 350 351 349 347 344 346 346 344 339 334 329 325 320 319 317 312 311 328 321 300 234 214 199 195 191 185 181 178 183 185 109 34 32 135 184 193 197 200 206 205 202 201 215 218 227 237 208 166 183 190 190 192 197
260 268 292 320 327 331 332 336 344 344 344 341 347 348 342 339 349 350 341 336 333 328 327 327 327 318 314 313 329 332 344 271 236 203 187 186 185 186 185 181 172 115 17 29 43 173 200 207 218 219 207 200 202 207 226 222 216 197 186 190 190 193 197